Regional Weather Roundup
Issued by NWS Huntsville, AL

Home | Current Version | Previous Version | Text Only | Print | Product List | Glossary On
Versions: 1 2 3 4 5 6 7 8 9 10 11 12 13 14 15 16 17 18 19 20 21 22 23 24 25 26 27 28 29 30 31 32 33 34 35 36 37 38 39 40 41 42 43 44 45 46 47 48 49 50
000
ASUS44 KHUN 011110
RWRHUN

WEATHER ROUNDUP FOR THE TENNESSEE VALLEY
NATIONAL WEATHER SERVICE HUNTSVILLE AL
600 AM CDT MON SEP 01 2014

ALZ001>004-011200-
NORTHWEST ALABAMA

CITY           SKY/WX    TMP DP  RH WIND       PRES   REMARKS
SHOALS AIRPORT MOCLDY    73  70  90 CALM      30.08S
$$

ALZ005>007-016-011200-
NORTH CENTRAL ALABAMA

CITY           SKY/WX    TMP DP  RH WIND       PRES   REMARKS
DECATUR AP     CLOUDY    72  71  97 MISG      30.09R
HUNTSVILLE AP  MOCLDY    74  70  87 E3        30.09R
HUN NWS/UAH      N/A     73  69  88 SE1         N/A
MERIDIANVILLE  MOCLDY    70  64  83 CALM      30.10R FOG
VINEMONT AP    FAIR      73  69  89 CALM      30.13R
$$

ALZ008>010-011200-
NORTHEAST ALABAMA

CITY           SKY/WX    TMP DP  RH WIND       PRES   REMARKS
ALBERTVILLE    CLOUDY    73  73 100 CALM      30.11R
FORT PAYNE     MOCLDY    70  66  88 CALM      30.11S
SCOTTSBORO AP  FOG       72  72 100 CALM      30.11S VSB 1/4
SCOTTSBORO HCN   N/A     72 N/A N/A MISG        N/A
VALLEY HEAD      N/A     70 N/A N/A MISG        N/A
$$

TNZ076-096-097-011200-
SOUTHEASTERN MIDDLE TENNESSEE

CITY           SKY/WX    TMP DP  RH WIND       PRES   REMARKS
FAYETTEVILLE   CLEAR     72  70  94 S5        30.11R
TULLAHOMA      CLEAR     72  70  94 CALM      30.12S
WINCHESTER     CLEAR     72  70  94 SE5       30.12R
$$

...SURROUNDING SITES...

CITY           SKY/WX    TMP DP  RH WIND       PRES   REMARKS
ATLANTA        CLOUDY    75  69  81 CALM      30.13R
ANNISTON       CLOUDY    72  69  90 CALM      30.11S
BIRMINGHAM     CLOUDY    75  70  84 SE3       30.12R
CHATTANOOGA    MOCLDY    73  70  90 CALM      30.12S
CORINTH        FAIR      73  72  94 CALM      30.05R FOG
DALTON         CLOUDY    70  70 100 CALM      30.12S
GADSDEN        CLOUDY    72  68  88 CALM      30.10S
GOLDEN TRNGL   CLEAR     72  68  88 S5        30.07R
HALEYVILLE     FAIR      71  71 100 CALM      30.13R
JACKSON TN     PTCLDY    75  72  90 S7        30.02S
LEWISBURG      FAIR      73  69  87 CALM      30.08S
MEMPHIS        PTCLDY    76  73  91 S10       30.00S
MURFREESBORO   FAIR      74  70  87 CALM      30.08S
NASHVILLE      MOCLDY    74  72  93 S7        30.07S
ROME           CLOUDY    72  70  93 CALM      30.11R
SAVANNAH       CLEAR     73  73 100 CALM      30.06R
TUPELO         CLEAR     72  70  93 S3        30.06R FOG
TUSCALOOSA     CLOUDY    75  71  87 CALM      30.08R
$$

...GULF COAST WEATHER...

CITY           SKY/WX    TMP DP  RH WIND       PRES   REMARKS
GULFPORT       PTCLDY    79  75  87 SE3       30.03R
PASCAGOULA     PTCLDY    72  72 100 CALM      30.04R FOG
MOBILE         PTCLDY    75  74  96 NE3       30.06R
GULF SHORES    MOSUNNY   75  74  97 CALM      30.05R
PENSACOLA      PTCLDY    76  75  97 CALM      30.05R
DESTIN         PTCLDY    80  78  94 E3        30.06R
PANAMA CITY    CLEAR     77  77 100 E3        30.08R
APPALACHICOLA  CLEAR     76  75  97 NE3       30.07R
$$



USA.gov is the U.S. government's official web portal to all federal, state and local government web resources and services.